NOZ605 ENBR-ENGM

Flight info

Callsign NOZ605
Flight time N/A
Altitude 31000
Route GOKAB DCT ULVAN DCT ADOPI
Aircraft B738/M-SDE2E3GHIJ1LRWXY/LB1

Departure

Time 2026-04-28 08:45
Airport Bergen Airport, Flesland (ENBR)

Arrival

Time N/A
Airport Oslo-Gardermoen International Airport (ENGM)
Time Latitude Longitude Altitude Speed Heading
2026-04-28 08:28 60.28740 5.22904 172 ft 0 kts 80°
2026-04-28 08:35 60.28740 5.22903 172 ft 0 kts 80°
2026-04-28 08:38 60.28739 5.22890 172 ft 4 kts 81°
2026-04-28 08:38 60.28734 5.22836 172 ft 4 kts 81°
2026-04-28 08:39 60.28728 5.22785 172 ft 4 kts 61°
2026-04-28 08:39 60.28711 5.22747 170 ft 4 kts 23°
2026-04-28 08:39 60.28693 5.22740 170 ft 1 kts 351°
2026-04-28 08:39 60.28689 5.22741 170 ft 2 kts 351°
2026-04-28 08:42 60.28697 5.22738 170 ft 3 kts 348°
2026-04-28 08:42 60.28720 5.22675 169 ft 10 kts 274°
2026-04-28 08:42 60.28699 5.22489 165 ft 11 kts 246°
2026-04-28 08:43 60.28649 5.22371 164 ft 12 kts 182°
2026-04-28 08:43 60.28560 5.22399 163 ft 14 kts 170°
2026-04-28 08:43 60.28443 5.22439 162 ft 20 kts 170°
2026-04-28 08:43 60.28292 5.22490 155 ft 23 kts 171°
2026-04-28 08:44 60.28136 5.22541 150 ft 22 kts 171°
2026-04-28 08:44 60.28056 5.22475 151 ft 12 kts 255°
2026-04-28 08:44 60.28045 5.22295 149 ft 13 kts 283°
2026-04-28 08:44 60.28124 5.22226 151 ft 14 kts 351°
2026-04-28 08:45 60.28298 5.22167 157 ft 52 kts 350°
2026-04-28 08:45 60.28892 5.21966 161 ft 118 kts 351°
2026-04-28 08:45 60.29860 5.21644 351 ft 152 kts 350°
2026-04-28 08:45 60.30919 5.21318 1010 ft 157 kts 350°
2026-04-28 08:46 60.32021 5.20971 1708 ft 162 kts 351°
2026-04-28 08:46 60.33131 5.20646 2560 ft 160 kts 352°
2026-04-28 08:46 60.34253 5.20323 3340 ft 170 kts 352°
2026-04-28 08:46 60.35412 5.20010 4186 ft 167 kts 351°
2026-04-28 08:47 60.36636 5.19642 4627 ft 191 kts 349°
2026-04-28 08:47 60.38014 5.19124 4908 ft 215 kts 348°
2026-04-28 08:47 60.39553 5.18535 5201 ft 233 kts 349°
2026-04-28 08:47 60.41214 5.17924 5524 ft 254 kts 349°
2026-04-28 08:48 60.42979 5.17292 6277 ft 259 kts 349°
2026-04-28 08:48 60.44754 5.16667 7220 ft 259 kts 349°
2026-04-28 08:48 60.46556 5.16348 7994 ft 264 kts
2026-04-28 08:48 60.48278 5.17687 8777 ft 272 kts 33°
2026-04-28 08:49 60.49543 5.20567 9558 ft 281 kts 60°
2026-04-28 08:49 60.50134 5.24396 10338 ft 289 kts 76°
2026-04-28 08:49 60.50206 5.28503 11013 ft 299 kts 101°
2026-04-28 08:49 60.49278 5.32295 11760 ft 308 kts 128°
2026-04-28 08:50 60.47525 5.35010 12025 ft 333 kts 158°
2026-04-28 08:50 60.45216 5.36264 12288 ft 354 kts 168°
2026-04-28 08:50 60.42763 5.37349 12764 ft 366 kts 163°
2026-04-28 08:50 60.40513 5.39728 13423 ft 369 kts 136°
2026-04-28 08:51 60.38931 5.43740 14155 ft 365 kts 112°
2026-04-28 08:51 60.38188 5.48573 14860 ft 358 kts 92°
2026-04-28 08:51 60.38221 5.53545 15543 ft 353 kts 78°
2026-04-28 08:51 60.38517 5.58487 16320 ft 355 kts 77°
2026-04-28 08:52 60.38846 5.63460 17036 ft 358 kts 76°
2026-04-28 08:52 60.39171 5.68475 17766 ft 362 kts 76°
2026-04-28 08:52 60.39483 5.73546 18506 ft 365 kts 76°
2026-04-28 08:52 60.39787 5.78677 19145 ft 369 kts 76°
2026-04-28 08:53 60.40084 5.83854 19783 ft 372 kts 77°
2026-04-28 08:53 60.40378 5.89080 20416 ft 375 kts 77°
2026-04-28 08:53 60.40673 5.94351 21028 ft 379 kts 77°
2026-04-28 08:53 60.40966 5.99667 21631 ft 382 kts 77°
2026-04-28 08:54 60.41256 6.05034 22208 ft 386 kts 77°
2026-04-28 08:54 60.41548 6.10452 22775 ft 389 kts 77°
2026-04-28 08:54 60.41840 6.15920 23375 ft 392 kts 77°
2026-04-28 08:54 60.42130 6.21438 23914 ft 396 kts 77°
2026-04-28 08:55 60.42422 6.27001 24318 ft 399 kts 77°
2026-04-28 08:55 60.42710 6.32530 24724 ft 401 kts 77°
2026-04-28 08:55 60.43003 6.38237 25155 ft 403 kts 77°
2026-04-28 08:55 60.43292 6.43889 25646 ft 405 kts 77°
2026-04-28 08:56 60.43363 6.49644 26095 ft 413 kts 84°
2026-04-28 08:56 60.43204 6.55487 26540 ft 418 kts 86°
2026-04-28 08:56 60.42979 6.61283 27080 ft 418 kts 87°
2026-04-28 08:56 60.42750 6.67121 27726 ft 414 kts 86°
2026-04-28 08:57 60.42544 6.72915 28392 ft 411 kts 85°
2026-04-28 08:57 60.42360 6.78673 28992 ft 410 kts 85°
2026-04-28 08:57 60.42190 6.84420 29530 ft 408 kts 84°
2026-04-28 08:57 60.42027 6.90148 30047 ft 408 kts 84°
2026-04-28 08:58 60.41864 6.95880 30597 ft 407 kts 84°
2026-04-28 08:58 60.41694 7.01585 31099 ft 405 kts 84°
2026-04-28 08:58 60.41522 7.07278 31450 ft 406 kts 84°
2026-04-28 08:59 60.41169 7.18650 31464 ft 405 kts 84°
2026-04-28 08:59 60.40801 7.29953 31448 ft 395 kts 84°
2026-04-28 09:00 60.40431 7.40843 31450 ft 377 kts 84°
2026-04-28 09:00 60.40248 7.46043 31478 ft 365 kts 83°
2026-04-28 09:00 60.40073 7.51087 31374 ft 356 kts 82°
2026-04-28 09:00 60.39905 7.56059 31071 ft 353 kts 82°
2026-04-28 09:01 60.39742 7.61063 30273 ft 364 kts 83°
2026-04-28 09:01 60.39577 7.66265 29363 ft 375 kts 83°
2026-04-28 09:01 60.39398 7.71549 28825 ft 376 kts 84°
2026-04-28 09:01 60.39208 7.76807 28394 ft 374 kts 84°
2026-04-28 09:02 60.39015 7.82022 28004 ft 370 kts 84°
2026-04-28 09:02 60.38821 7.87194 27638 ft 367 kts 84°
2026-04-28 09:02 60.38628 7.92312 27274 ft 363 kts 84°
2026-04-28 09:02 60.38437 7.97383 26917 ft 360 kts 84°
2026-04-28 09:03 60.38249 8.02348 26571 ft 358 kts 84°
2026-04-28 09:03 60.38056 8.07413 26218 ft 356 kts 84°
2026-04-28 09:03 60.37865 8.12382 25903 ft 353 kts 84°
2026-04-28 09:03 60.37676 8.17257 25544 ft 352 kts 84°
2026-04-28 09:04 60.37484 8.22163 25192 ft 349 kts 84°
2026-04-28 09:04 60.37291 8.27042 24850 ft 348 kts 84°
2026-04-28 09:04 60.37097 8.31912 24498 ft 347 kts 84°
2026-04-28 09:04 60.36902 8.36761 24132 ft 345 kts 84°
2026-04-28 09:05 60.36705 8.41585 23735 ft 344 kts 85°
2026-04-28 09:05 60.36508 8.46387 23361 ft 342 kts 85°
2026-04-28 09:05 60.36311 8.51156 22977 ft 339 kts 85°
2026-04-28 09:05 60.36112 8.55887 22639 ft 337 kts 85°
2026-04-28 09:06 60.35914 8.60583 22296 ft 334 kts 85°
2026-04-28 09:06 60.35715 8.65246 21943 ft 332 kts 85°
2026-04-28 09:06 60.35517 8.69882 21610 ft 330 kts 85°
2026-04-28 09:06 60.35318 8.74473 21283 ft 327 kts 86°
2026-04-28 09:07 60.35120 8.79029 20989 ft 324 kts 86°
2026-04-28 09:07 60.34920 8.83549 20633 ft 321 kts 86°
2026-04-28 09:07 60.34721 8.88017 20331 ft 318 kts 86°
2026-04-28 09:07 60.34525 8.92452 20008 ft 317 kts 86°
2026-04-28 09:08 60.34327 8.96879 19687 ft 316 kts 87°
2026-04-28 09:08 60.34129 9.01293 19364 ft 315 kts 87°
2026-04-28 09:08 60.33929 9.05689 19047 ft 314 kts 87°
2026-04-28 09:08 60.33729 9.10071 18736 ft 313 kts 88°
2026-04-28 09:09 60.33526 9.14445 18364 ft 312 kts 88°
2026-04-28 09:09 60.33323 9.18799 18025 ft 311 kts 88°
2026-04-28 09:09 60.33121 9.23132 17693 ft 309 kts 88°
2026-04-28 09:09 60.32919 9.27441 17372 ft 307 kts 88°
2026-04-28 09:10 60.32715 9.31716 17059 ft 305 kts 89°
2026-04-28 09:10 60.32511 9.35971 16747 ft 304 kts 89°
2026-04-28 09:10 60.32259 9.40194 16470 ft 304 kts 94°
2026-04-28 09:10 60.31840 9.44360 16234 ft 303 kts 96°
2026-04-28 09:11 60.31376 9.48498 15919 ft 302 kts 97°
2026-04-28 09:11 60.30910 9.52630 15607 ft 301 kts 97°
2026-04-28 09:11 60.30451 9.56747 15296 ft 300 kts 97°
2026-04-28 09:11 60.30002 9.60838 14991 ft 298 kts 97°
2026-04-28 09:12 60.29558 9.64910 14698 ft 297 kts 97°
2026-04-28 09:12 60.29115 9.68999 14352 ft 298 kts 97°
2026-04-28 09:12 60.28681 9.73007 14064 ft 296 kts 97°
2026-04-28 09:12 60.28236 9.77105 13733 ft 295 kts 97°
2026-04-28 09:13 60.27788 9.81082 13354 ft 297 kts 100°
2026-04-28 09:13 60.27121 9.85060 13079 ft 301 kts 106°
2026-04-28 09:13 60.26352 9.88995 12817 ft 303 kts 107°
2026-04-28 09:13 60.25561 9.92945 12554 ft 305 kts 107°
2026-04-28 09:14 60.24768 9.96930 12305 ft 307 kts 107°
2026-04-28 09:14 60.23980 10.00937 12053 ft 308 kts 107°
2026-04-28 09:14 60.23195 10.04961 11795 ft 310 kts 107°
2026-04-28 09:14 60.22415 10.08984 11569 ft 307 kts 106°
2026-04-28 09:15 60.21647 10.12958 11297 ft 303 kts 106°
2026-04-28 09:15 60.20891 10.16876 11069 ft 298 kts 106°
2026-04-28 09:15 60.20180 10.20759 10790 ft 295 kts 104°
2026-04-28 09:15 60.19545 10.24692 10362 ft 297 kts 102°
2026-04-28 09:16 60.18944 10.28686 9929 ft 299 kts 101°
2026-04-28 09:16 60.18424 10.32701 9683 ft 294 kts 98°
2026-04-28 09:16 60.18009 10.36663 9501 ft 287 kts 96°
2026-04-28 09:16 60.17660 10.40580 9213 ft 284 kts 95°
2026-04-28 09:17 60.17339 10.44509 8804 ft 286 kts 94°